Погода в Жаркенте

Казахстан     44°09′57″N   80°00′13″E
темп.,
°C
ветер,
м/с
пор.,
м/с
влажн.,
%
обл.,
%
осадки,
мм/ч
давл.,
гПа
погр.,
м
1 марта, пн
пн100:00−3с224350 0.0 102721
03:00−4с11440 0.0 102521
06:00−5ссв01430 0.0 102521
09:00−2в11520 0.0 102437
12:00+1вюв11512 0.0 1022155
15:00+4ссв124729 0.0 1021242
18:00+1юз125237 0.0 102222
21:00−1с114882 0.0 102422
2 марта, вт
вт200:00−1всв124952 0.0 102422
03:00−2св12440 0.0 102422
06:00−2с11412 0.0 102422
09:00+1ссз124132 0.0 102423
12:00+5юв113025 0.0 1021293
15:00+6юв123151 0.0 1020412
18:00+1ююз015334 0.0 102022
21:000ссз015254 0.0 102322
3 марта, ср
ср300:000вюв115375 0.0 102322
03:000ююв1152100 0.0 102322
06:000ссв1154100 0.1 102422
09:00+2юв1147100 0.0 102457
12:00+3ю1141100 0.0 1024495
15:00+4юв1145100 0.0 1023817
18:00+2в1260100 0.0 102431
21:00+1в1268100 0.0 102667
4 марта, чт
чт400:00−1всв2296100 0.9 1027126
03:00−1в2398100 0.7 1025125
06:00−1всв2295100 0.8 102652
09:00+1в248396 0.1 1025360
12:00+3в237092 0.1 1023668
15:00+5всв235492 0.0 1022758
18:00+4всв225961 0.0 102252
21:00+2ссв235859 0.0 102225
5 марта, пт
пт500:00+2с234952 0.0 102122
03:00+1ссз1247100 0.0 102022
06:00+2зсз1245100 0.0 102022
09:00+3зсз1249100 0.0 102240
12:00+6юз6951100 0.1 1025596
15:00+6юз81057100 0.1 1028625
18:00+4юз71152100 0.1 1032526
21:00+1ю2664100 0.0 1033309